Location: Pontbriand
(46.1542°N, 71.2542°W)
Time: 17:19:31
(UTC+00:00)

Envisat - Pass Details

Date: 04 October 2022
Orbit: 763 x 765 km, 98.2° (Epoch: 30 November)

Event Time Altitude Azimuth Distance (km) Brightness Sun altitude
Rises 10:00:28 0° 6° (N) 3,245 6.4 -9.0°
Reaches altitude 10° 10:02:55 10° 358° (N) 2,314 5.5 -8.5°
Maximum altitude 10:07:33 36° 293° (WNW) 1,198 3.6 -7.7°
Drops below altitude 10° 10:12:08 10° 228° (SW) 2,298 5.0 -6.9°
Sets 10:14:35 0° 220° (SW) 3,220 5.8 -6.5°
